This is the latest recevied weather packets stored in our database for station/object DM3DP. If no packets are shown the sender has not sent any weather packets the latest 10 day(s).
| Time | Temp. | Humidity | Pressure | Rain* | Wind** | Luminosity | Snow |
|---|---|---|---|---|---|---|---|
| 1777814877 | 19.44° C | 67% | 1010.4 hPa | 0.25 mm | - | 141 W/m² | - |
| 1777814547 | 19.44° C | 67% | 1010.4 hPa | 0.25 mm | - | 101 W/m² | - |
| 1777814217 | 20° C | 62% | 1010.4 hPa | 0.25 mm | - | 79 W/m² | - |
| 1777813886 | 20° C | 62% | 1010.4 hPa | 0 mm | - | 77 W/m² | - |
| 1777812567 | 21.67° C | 51% | 1010.2 hPa | 0 mm | - | 118 W/m² | - |
| 1777811577 | 21.67° C | 50% | 1010.1 hPa | 0 mm | - | 160 W/m² | - |
| 1777811246 | 22.22° C | 49% | 1010.1 hPa | 0 mm | - | 133 W/m² | - |
| 1777810916 | 22.78° C | 49% | 1010.1 hPa | 0 mm | - | 105 W/m² | - |
| 1777810587 | 22.78° C | 49% | 1010.1 hPa | 0 mm | - | 96 W/m² | - |
| 1777809926 | 22.78° C | 48% | 1010.1 hPa | 0 mm | - | 191 W/m² | - |
| 1777809597 | 22.78° C | 48% | 1010.1 hPa | 0 mm | - | 238 W/m² | - |
| 1777807616 | 22.22° C | 47% | 1010.2 hPa | 0 mm | - | 153 W/m² | - |
| 1777807286 | 22.22° C | 48% | 1010.2 hPa | 0 mm | - | 175 W/m² | - |
| 1777806956 | 22.22° C | 47% | 1010.2 hPa | 0 mm | - | 161 W/m² | - |
| 1777806626 | 22.22° C | 49% | 1010.3 hPa | 0 mm | - | 201 W/m² | - |
| 1777804646 | 21.67° C | 48% | 1010.3 hPa | 0 mm | - | 148 W/m² | - |
| 1777804316 | 21.67° C | 48% | 1010.3 hPa | 0 mm | - | 154 W/m² | - |
| 1777803986 | 22.22° C | 47% | 1010.2 hPa | 0 mm | - | 143 W/m² | - |
| 1777802996 | 22.22° C | 49% | 1010.3 hPa | 0 mm | - | 432 W/m² | - |
| 1777802666 | 22.22° C | 48% | 1010.3 hPa | 0 mm | - | 612 W/m² | - |
| 1777801016 | 21.11° C | 48% | 1010.3 hPa | 0 mm | - | 368 W/m² | - |
| 1777800686 | 21.11° C | 48% | 1010.3 hPa | 0 mm | - | 259 W/m² | - |
| 1777800356 | 21.67° C | 48% | 1010.4 hPa | 0 mm | - | 202 W/m² | - |
| 1777800027 | 22.22° C | 48% | 1010.5 hPa | 0 mm | - | 589 W/m² | - |
| 1777799696 | 21.67° C | 50% | 1010.3 hPa | 0 mm | - | 879 W/m² | - |
* Rain latest hour (hover to see other rain measurements)
** Current wind speed in m/s (hover to see current wind gust speed)